Location: ?
(35.4064°N, 139.3593°E)
Time: 15:16:40
(UTC+00:00)

ACS3 Solar Sail - Pass Details

Date: 27 June 2024
Orbit: 993 x 1023 km, 97.4° (Epoch: 19 July)

Event Time Altitude Azimuth Distance (km) Brightness Sun altitude
Exits shadow 11:52:13 30° 141° (SE) 1,715 5.5 -18.4°
Maximum altitude 11:55:18 59° 74° (ENE) 1,142 5.0 -18.8°
Drops below altitude 10° 12:01:23 10° 357° (N) 2,763 7.9 -19.6°
Sets 12:03:54 0° 354° (N) 3,715 8.8 -19.9°
